Fort Wayne, IN

12:35 PM EST on November 22, 2019 (GMT -0500)
Fort Wayne International

Weather History for KFWA - September, 2019

Change the Weather History Date:

Sunday, September 29, 2019

  Actual Average Record
Temperature  
Mean Temperature 66 °F 59 °F  
Max Temperature 72 °F 70 °F 94 °F (1953)
Min Temperature 60 °F 47 °F 29 °F (1951)
Degree Days  
Heating Degree Days 0 7  
Month to date heating degree days 17 96  
Since 1 July heating degree days 18 108  
Cooling Degree Days 1 1  
Month to date cooling degree days 122 80  
Year to date cooling degree days 960 797  
Growing Degree Days 16 (Base 50)    
Moisture  
Dew Point 63 °F    
Average Humidity 92    
Maximum Humidity 100    
Minimum Humidity 84    
Precipitation  
Precipitation 0.04 in 0.09 in 1.04 in (1927)
Month to date precipitation 2.59 2.71  
Year to date precipitation 30.86 29.55  
Sea Level Pressure  
Sea Level Pressure 30.20 in    
Wind  
Wind Speed 9 mph (East)    
Max Wind Speed 17 mph    
Max Gust Speed 22 mph    
Visibility 7 miles    
Events Rain    
T = Trace of Precipitation, MM = Missing Value Source: NWS Daily Summary

Daily Weather History Graph

Daily Weather History Graph

Search for Another Location

Airport or City:

Astronomy

Sep. 29, 2019 Rise Set
Actual Time 7:35 AM EDT 7:26 PM EDT
Civil Twilight 7:07 AM EDT 7:53 PM EDT
Nautical Twilight 6:35 AM EDT 8:25 PM EDT
Astronomical Twilight 6:03 AM EDT 8:57 PM EDT
Moon 8:24 AM EDT (9/29) 8:26 PM EDT (9/29)
Length of Visible Light 12h 46m
Length of Day
11h 51m
New Moon, 1% of the Moon is Illuminated
Sep 29
New Moon
Oct 5
First Quarter
Oct 13
Full
Oct 21
Last Quarter
Oct 27
New

Hourly Weather History & Observations

Time (EDT) Temp. Dew Point Humidity Pressure Visibility Wind Dir Wind Speed Gust Speed Precip Events Conditions
12:54 AM 64.0 °F 61.0 °F 90% 30.22 in 9.0 mi ENE 11.5 mph - N/A   Overcast
1:54 AM 64.0 °F 61.0 °F 90% 30.22 in 10.0 mi East 13.8 mph - N/A   Overcast
2:39 AM 63.0 °F 60.1 °F 90% 30.24 in 10.0 mi East 11.5 mph - N/A   Overcast
2:54 AM 63.0 °F 60.1 °F 90% 30.22 in 10.0 mi East 10.4 mph - N/A   Overcast
3:33 AM 63.0 °F 60.1 °F 90% 30.22 in 9.0 mi East 16.1 mph - N/A   Overcast
3:54 AM 63.0 °F 60.1 °F 90% 30.21 in 9.0 mi East 12.7 mph - N/A   Overcast
4:54 AM 62.1 °F 60.1 °F 93% 30.22 in 9.0 mi East 11.5 mph - N/A   Overcast
5:54 AM 61.0 °F 59.0 °F 93% 30.21 in 8.0 mi ENE 10.4 mph - N/A   Overcast
6:54 AM 60.1 °F 57.9 °F 93% 30.22 in 9.0 mi East 11.5 mph - N/A   Overcast
7:54 AM 60.1 °F 59.0 °F 96% 30.24 in 4.0 mi East 9.2 mph - N/A   Overcast
8:06 AM 60.1 °F 59.0 °F 96% 30.25 in 3.0 mi East 11.5 mph - N/A   Overcast
8:28 AM 60.1 °F 59.0 °F 96% 30.25 in 2.5 mi East 10.4 mph - 0.00 in Rain Light Rain
8:54 AM 60.1 °F 59.0 °F 96% 30.23 in 2.0 mi ENE 11.5 mph - 0.01 in Rain Light Rain
9:16 AM 61.0 °F 60.1 °F 97% 30.26 in 3.0 mi East 9.2 mph - 0.01 in Rain Light Rain
9:31 AM 61.0 °F 60.1 °F 97% 30.26 in 4.0 mi East 8.1 mph - 0.01 in   Overcast
9:54 AM 61.0 °F 60.1 °F 97% 30.25 in 4.0 mi East 12.7 mph - 0.01 in   Overcast
10:41 AM 62.1 °F 61.0 °F 96% 30.24 in 5.0 mi East 10.4 mph - 0.00 in   Overcast
10:54 AM 63.0 °F 61.0 °F 93% 30.24 in 5.0 mi East 11.5 mph - 0.00 in   Overcast
11:54 AM 64.0 °F 62.1 °F 93% 30.21 in 6.0 mi East 12.7 mph - N/A   Overcast
12:04 PM 64.0 °F 62.1 °F 93% 30.23 in 7.0 mi East 6.9 mph - N/A   Overcast
12:54 PM 66.0 °F 63.0 °F 90% 30.21 in 5.0 mi ESE 8.1 mph - 0.00 in Rain Light Rain
1:04 PM 66.0 °F 63.0 °F 90% 30.23 in 8.0 mi East 4.6 mph - 0.00 in   Light Drizzle
1:20 PM 66.0 °F 64.0 °F 93% 30.21 in 2.5 mi ESE 9.2 mph - 0.01 in Rain Light Rain
1:28 PM 66.9 °F 64.9 °F 93% 30.21 in 4.0 mi ESE 11.5 mph - 0.02 in   Overcast
1:46 PM 66.9 °F 64.9 °F 93% 30.20 in 7.0 mi East 10.4 mph - 0.02 in   Overcast
1:54 PM 66.9 °F 64.0 °F 90% 30.19 in 7.0 mi East 11.5 mph - 0.02 in   Overcast
2:54 PM 70.0 °F 66.9 °F 90% 30.16 in 9.0 mi East 9.2 mph - N/A   Overcast
3:38 PM 72.0 °F 66.9 °F 84% 30.17 in 10.0 mi ESE 8.1 mph - N/A   Overcast
3:54 PM 71.1 °F 66.9 °F 87% 30.16 in 10.0 mi ESE 9.2 mph - N/A   Overcast
4:29 PM 72.0 °F 68.0 °F 87% 30.16 in 10.0 mi SE 10.4 mph - N/A   Overcast
4:54 PM 72.0 °F 66.9 °F 84% 30.15 in 9.0 mi SE 9.2 mph - N/A   Overcast
5:54 PM 72.0 °F 68.0 °F 87% 30.15 in 10.0 mi ESE 5.8 mph - N/A   Overcast
6:21 PM 72.0 °F 68.0 °F 87% 30.16 in 10.0 mi East 4.6 mph - N/A   Overcast
6:54 PM 71.1 °F 68.0 °F 90% 30.15 in 9.0 mi East 6.9 mph - N/A   Overcast
7:37 PM 70.0 °F 68.0 °F 93% 30.15 in 8.0 mi East 4.6 mph - 0.00 in   Mostly Cloudy
7:54 PM 69.1 °F 68.0 °F 96% 30.15 in 7.0 mi East 5.8 mph - 0.00 in   Overcast
8:54 PM 68.0 °F 66.9 °F 96% 30.16 in 9.0 mi East 4.6 mph - N/A   Overcast
9:54 PM 68.0 °F 66.9 °F 96% 30.17 in 8.0 mi East 5.8 mph - N/A   Overcast
10:22 PM 68.0 °F 66.9 °F 96% 30.17 in 5.0 mi East 5.8 mph - N/A   Overcast
10:54 PM 68.0 °F 66.9 °F 96% 30.14 in 5.0 mi East 8.1 mph - N/A   Mostly Cloudy
11:12 PM 66.9 °F 66.9 °F 100% 30.15 in 4.0 mi East 5.8 mph - N/A   Overcast
11:24 PM 66.9 °F 66.9 °F 100% 30.16 in 4.0 mi East 4.6 mph - N/A   Overcast
11:54 PM 66.9 °F 66.9 °F 100% 30.15 in 4.0 mi East 5.8 mph - N/A   Overcast